Regional Weather Roundup
Issued by NWS

Home | Current Version | Previous Version | Text Only | Print | Product List | Glossary On
Versions: 1 2 3 4 5 6 7 8 9 10 11 12 13 14 15 16 17 18 19 20 21 22 23 24 25 26 27 28 29 30 31 32 33 34 35 36 37 38 39 40 41 42 43 44 45 46 47 48 49 50
424
ASUS42 KKEY 241310
RWRKEY

FLORIDA REGIONAL WEATHER ROUNDUP FOR THE FLORIDA KEYS
NATIONAL WEATHER SERVICE KEY WEST FLORIDA
900 AM EDT SAT JUN 24 2017

...SOUTH FLORIDA AND THE KEYS...

CITY           SKY/WX    TMP DP  RH WIND       PRES   REMARKS
FORT MYERS     SUNNY     83  78  85 E6        30.05R HX  93
SW REGIONAL AP MOSUNNY   82  76  81 SE6       30.05S
NAPLES         SUNNY     83  77  82 E7        30.05R HX  92
MIAMI          PTSUNNY   86  74  67 SE12      30.06R HX  94
WEST KENDALL   MOSUNNY   86  74  67 SE8       30.05R HX  94
HOMESTEAD      MOSUNNY   85  77  76 E13       30.05R HX  96
MARATHON       SUNNY     85  77  77 SE7       30.03R HX  95
BOCA CHICA NAS PTSUNNY   85  75  72 SE14      30.03R HX  93
KEY WEST INTL  MOSUNNY   85  75  72 SE10      30.04R HX  93

...INTERNATIONAL WEATHER...

CITY           SKY/WX    TMP DP  RH WIND       PRES   REMARKS
NASSAU BAHAMAS PTSUNNY  N/A N/A N/A E8        30.07R
CANCUN MEXICO  PTSUNNY   84  79  84 SE12      29.95R HX  96
COZUMEL MEXICO PTSUNNY   82  79  89 SE10      29.93R HX  93

ADJACENT COASTAL WATERS...

STATION/POSITION TIME  SKY/WX   TEMP    WIND        PRES    WAVE
                                AIR SEA DIR/SP/G            HT/PER
                 (UTC)          (F)     (DEG/KT/KT) (MB)    (FT/S)
PULASKI SHOAL LI 1300            83     140/ 16/ 17 1016.9R
SAND KEY         1250            83     140/ 13/ 15 1017.4R
LONG KEY         1200            84     150/ 10       N/A
MOLASSES REEF    1200            83 83  130/ 13/ 14 1017.3R
FOWEY ROCKS      1200            83 82  120/ 17/ 18 1017.8R
Buoy 42097       1230               82                N/A     3/ 5

$$




USA.gov is the U.S. government's official web portal to all federal, state and local government web resources and services.